Elazig, Turkey

12:17 AM +03 on October 19, 2017 (GMT +0300)
Elazig

Weather History for LTCA - August, 2014

Change the Weather History Date:

Saturday, August 9, 2014

  Actual Average Record
Temperature  
Mean Temperature 80 °F -  
Max Temperature 99 °F 93 °F 106 °F (2017)
Min Temperature 62 °F 66 °F 61 °F (2013)
Cooling Degree Days 16    
Growing Degree Days 30 (Base 50)    
Moisture  
Dew Point 39 °F    
Average Humidity 20    
Maximum Humidity 42    
Minimum Humidity 5    
Precipitation  
Precipitation 0.00 in - - ()
Sea Level Pressure  
Sea Level Pressure 29.69 in    
Wind  
Wind Speed 5 mph ()    
Max Wind Speed 13 mph    
Max Gust Speed 26 mph    
Visibility 9.8 miles    
Events      
Averages and records for this station are not official NWS values.
T = Trace of Precipitation, MM = Missing Value Source: Averaged Metar Reports

Daily Weather History Graph

Daily Weather History Graph

Search for Another Location

Airport or City:

Trip Planner

Search our weather history database for the weather conditions in past years. The results will help you decide how hot, cold, wet, or windy it might be!

Date:

Astronomy

Aug. 09, 2014 Rise Set
Actual Time 5:31 AM EEST 7:24 PM EEST
Civil Twilight 5:02 AM EEST 7:53 PM EEST
Nautical Twilight 4:27 AM EEST 8:28 PM EEST
Astronomical Twilight 3:49 AM EEST 9:06 PM EEST
Moon 6:09 PM EEST (8/9) 3:47 AM EEST (8/9)
Length of Visible Light 14h 51m
Length of Day
13h 53m
Waxing Gibbous, 97% of the Moon is Illuminated
Aug 9
Waxing Gibbous
Aug 10
Full
Aug 17
Last Quarter
Aug 25
New
Sep 2
First Quarter

Hourly Weather History & Observations

Time (EEST) Temp. Dew Point Humidity Pressure Visibility Wind Dir Wind Speed Gust Speed Precip Events Conditions
12:00 AM 71 °F 31 °F 13% 29.55 in 12 mi SW 2.3 mph - -  
12:50 AM 69.8 °F 35.6 °F 28% 29.74 in - West 6.9 mph - N/A   Clear
1:50 AM 66.2 °F 35.6 °F 32% 29.74 in - WSW 6.9 mph - N/A   Clear
3:00 AM 66 °F 36 °F 21% 29.55 in 12 mi SSE 3.5 mph - -  
3:50 AM 64.4 °F 35.6 °F 34% 29.77 in - WSW 4.6 mph - N/A   Clear
4:50 AM 66.2 °F 37.4 °F 35% 29.77 in - WNW 5.8 mph - N/A   Clear
5:50 AM 64.4 °F 41.0 °F 42% 29.77 in - NW 5.8 mph - N/A   Clear
6:00 AM 65 °F 41 °F 30% 29.58 in 12 mi NW 5.8 mph - -  
6:50 AM 71.6 °F 41.0 °F 33% 29.80 in - Variable 2.3 mph - N/A   Clear
7:50 AM 80.6 °F 48.2 °F 32% 29.80 in - Variable 2.3 mph - N/A   Clear
8:50 AM 86.0 °F 46.4 °F 25% 29.80 in - Variable 3.5 mph - N/A   Clear
9:00 AM 86 °F 46 °F 15% 29.58 in 12 mi WNW 3.5 mph - -  
9:50 AM 87.8 °F 48.2 °F 25% 29.80 in - NW 5.8 mph - N/A   Clear
10:50 AM 91.4 °F 46.4 °F 21% 29.77 in - Variable 8.1 mph - N/A   Clear
11:50 AM 95.0 °F 41.0 °F 15% 29.77 in - Variable 4.6 mph - N/A   Clear
12:00 PM 94 °F 41 °F 9% 29.55 in 12 mi ENE 4.6 mph - -  
12:50 PM 95.0 °F 37.4 °F 13% 29.74 in - Variable 5.8 mph - N/A   Clear
1:50 PM 96.8 °F 35.6 °F 12% 29.74 in - West 4.6 mph - N/A   Clear
2:50 PM 96.8 °F 35.6 °F 12% 29.71 in 6.2 mi Variable 4.6 mph - N/A   Partly Cloudy
3:00 PM 98 °F 34 °F 5% 29.50 in 12 mi South 4.6 mph - -   Scattered Clouds
3:50 PM 98.6 °F 37.4 °F 12% 29.71 in 6.2 mi NW 6.9 mph - N/A   Partly Cloudy
4:50 PM 98.6 °F 35.6 °F 11% 29.68 in 6.2 mi NW 10.4 mph - N/A   Partly Cloudy
5:50 PM 96.8 °F 33.8 °F 11% 29.68 in 6.2 mi NW 9.2 mph - N/A   Partly Cloudy
6:00 PM 97 °F 34 °F 5% 29.48 in 12 mi NW 9.2 mph - -   Scattered Clouds
6:50 PM 95.0 °F 35.6 °F 12% 29.68 in 6.2 mi NW 8.1 mph - N/A   Partly Cloudy
7:50 PM 87.8 °F 35.6 °F 16% 29.71 in - WNW 4.6 mph - N/A   Clear
8:50 PM 82.4 °F 32.0 °F 16% 29.71 in - SSW 6.9 mph - N/A   Clear
9:00 PM 82 °F 31 °F 8% 29.50 in 12 mi SSW 6.9 mph - -  
9:50 PM 80.6 °F 35.6 °F 20% 29.74 in - SSW 3.5 mph - N/A   Clear
10:50 PM 84.2 °F 48.2 °F 29% 29.74 in - West 9.2 mph - N/A   Clear
11:50 PM 84.2 °F 50.0 °F 30% 29.77 in - SSW 12.7 mph 26.5 mph N/A   Clear